contact:dominique.lefevre@mio.osupytheas.fr, maurice.libes@osupytheas.fr, didier.mallarino@osupytheas.fr
Project:EMSO http://www.emso-fr.org/EMSO-France
Depth: 2436.0 m
Title:EMSO Ligure Ouest : Data MII capteur CSTAR
DateTime,Latitude,Longitude,Instrument_Serial,Reference_Counts,Signal_Counts,Corrected_Signal_raw_counts,Calculated_Beam_c_inverse_meters,Internal_thermistor_counts
DateTime,Latitude,Longitude,Instrument_Serial,Reference_Counts,Signal_Counts,Corrected_Signal_raw_counts,Calculated_Beam_c_inverse_meters,Internal_thermistor_counts
2021-08-23T00:02:14,42.805,6.029,CST-1368DR,5281,7268,14748,0.229,551
2021-08-23T00:05:16,42.805,6.029,CST-1368DR,5281,7268,14748,0.229,551
2021-08-23T00:08:18,42.805,6.029,CST-1368DR,5281,7268,14748,0.229,551
2021-08-23T00:11:19,42.805,6.029,CST-1368DR,5281,7268,14748,0.229,551
2021-08-23T00:14:21,42.805,6.029,CST-1368DR,5281,7267,14747,0.229,551
2021-08-23T00:17:22,42.805,6.029,CST-1368DR,5281,7268,14748,0.229,551
2021-08-23T00:20:24,42.805,6.029,CST-1368DR,5281,7268,14748,0.229,551
2021-08-23T00:23:25,42.805,6.029,CST-1368DR,5281,7267,14747,0.229,551
2021-08-23T00:26:27,42.805,6.029,CST-1368DR,5281,7268,14748,0.229,551
2021-08-23T00:29:29,42.805,6.029,CST-1368DR,5281,7268,14748,0.229,551
2021-08-23T00:32:30,42.805,6.029,CST-1368DR,5281,7267,14746,0.229,551
2021-08-23T00:35:32,42.805,6.029,CST-1368DR,5281,7267,14746,0.229,551
2021-08-23T00:38:33,42.805,6.029,CST-1368DR,5281,7268,14748,0.229,551
2021-08-23T00:41:35,42.805,6.029,CST-1368DR,5281,7267,14747,0.229,551
2021-08-23T00:44:36,42.805,6.029,CST-1368DR,5281,7267,14746,0.229,550
2021-08-23T00:47:38,42.805,6.029,CST-1368DR,5281,7267,14747,0.229,551
2021-08-23T00:50:40,42.805,6.029,CST-1368DR,5281,7268,14748,0.229,551
2021-08-23T00:53:41,42.805,6.029,CST-1368DR,5281,7268,14748,0.229,551
2021-08-23T00:56:43,42.805,6.029,CST-1368DR,5281,7268,14748,0.229,551
2021-08-23T00:59:44,42.805,6.029,CST-1368DR,5281,7268,14747,0.229,551
2021-08-23T01:02:46,42.805,6.029,CST-1368DR,5281,7268,14749,0.228,550
2021-08-23T01:05:48,42.805,6.029,CST-1368DR,5281,7268,14748,0.229,551
2021-08-23T01:08:49,42.805,6.029,CST-1368DR,5281,7268,14749,0.228,551
2021-08-23T01:11:51,42.805,6.029,CST-1368DR,5281,7268,14748,0.229,551
2021-08-23T01:14:52,42.805,6.029,CST-1368DR,5281,7269,14749,0.228,551
2021-08-23T01:17:54,42.805,6.029,CST-1368DR,5281,7268,14748,0.229,551
2021-08-23T01:20:55,42.805,6.029,CST-1368DR,5281,7268,14749,0.228,551
2021-08-23T01:23:57,42.805,6.029,CST-1368DR,5281,7268,14748,0.229,551
2021-08-23T01:26:59,42.805,6.029,CST-1368DR,5280,7268,14750,0.228,551
2021-08-23T01:30:00,42.805,6.029,CST-1368DR,5280,7268,14751,0.228,551
2021-08-23T01:33:02,42.805,6.029,CST-1368DR,5281,7268,14748,0.229,551
2021-08-23T01:36:03,42.805,6.029,CST-1368DR,5281,7268,14747,0.229,551
2021-08-23T01:39:05,42.805,6.029,CST-1368DR,5280,7267,14749,0.228,551
2021-08-23T01:42:06,42.805,6.029,CST-1368DR,5281,7267,14747,0.229,551
2021-08-23T01:45:08,42.805,6.029,CST-1368DR,5280,7268,14750,0.228,551
2021-08-23T01:48:10,42.805,6.029,CST-1368DR,5280,7267,14748,0.229,551
2021-08-23T01:51:11,42.805,6.029,CST-1368DR,5280,7268,14750,0.228,551
2021-08-23T01:54:13,42.805,6.029,CST-1368DR,5280,7267,14749,0.228,551
2021-08-23T01:57:14,42.805,6.029,CST-1368DR,5280,7267,14749,0.228,551
2021-08-23T02:00:16,42.805,6.029,CST-1368DR,5281,7268,14747,0.229,551
2021-08-23T02:03:18,42.805,6.029,CST-1368DR,5280,7267,14749,0.228,551
2021-08-23T02:06:19,42.805,6.029,CST-1368DR,5281,7268,14748,0.229,551
2021-08-23T02:09:21,42.805,6.029,CST-1368DR,5280,7260,14734,0.233,551
2021-08-23T02:12:22,42.805,6.029,CST-1368DR,5280,7266,14747,0.229,551
2021-08-23T02:15:24,42.805,6.029,CST-1368DR,5281,7268,14747,0.229,551
2021-08-23T02:18:25,42.805,6.029,CST-1368DR,5281,7268,14748,0.229,551
2021-08-23T02:21:27,42.805,6.029,CST-1368DR,5280,7267,14748,0.229,551
2021-08-23T02:24:29,42.805,6.029,CST-1368DR,5280,7267,14749,0.228,551
2021-08-23T02:27:30,42.805,6.029,CST-1368DR,5280,7267,14749,0.228,551
2021-08-23T02:30:32,42.805,6.029,CST-1368DR,5280,7267,14749,0.228,551
2021-08-23T02:33:33,42.805,6.029,CST-1368DR,5280,7267,14748,0.229,551
2021-08-23T02:36:35,42.805,6.029,CST-1368DR,5280,7267,14749,0.228,551
2021-08-23T02:39:37,42.805,6.029,CST-1368DR,5280,7268,14750,0.228,551
2021-08-23T02:42:38,42.805,6.029,CST-1368DR,5280,7268,14750,0.228,551
2021-08-23T02:45:40,42.805,6.029,CST-1368DR,5280,7267,14748,0.229,551
2021-08-23T02:48:41,42.805,6.029,CST-1368DR,5280,7268,14751,0.228,551
2021-08-23T02:51:43,42.805,6.029,CST-1368DR,5280,7267,14748,0.229,551
2021-08-23T02:54:44,42.805,6.029,CST-1368DR,5280,7267,14749,0.228,551
2021-08-23T02:57:46,42.805,6.029,CST-1368DR,5280,7267,14749,0.228,551
2021-08-23T03:00:48,42.805,6.029,CST-1368DR,5280,7267,14749,0.228,551
2021-08-23T03:03:49,42.805,6.029,CST-1368DR,5280,7267,14749,0.228,551
2021-08-23T03:06:51,42.805,6.029,CST-1368DR,5280,7267,14749,0.228,551
2021-08-23T03:09:52,42.805,6.029,CST-1368DR,5280,7268,14750,0.228,551
2021-08-23T03:12:54,42.805,6.029,CST-1368DR,5280,7268,14750,0.228,551
2021-08-23T03:15:55,42.805,6.029,CST-1368DR,5280,7268,14750,0.228,551
2021-08-23T03:18:57,42.805,6.029,CST-1368DR,5280,7268,14751,0.228,551
2021-08-23T03:21:59,42.805,6.029,CST-1368DR,5280,7268,14750,0.228,551
2021-08-23T03:25:00,42.805,6.029,CST-1368DR,5280,7268,14750,0.228,551
2021-08-23T03:28:02,42.805,6.029,CST-1368DR,5280,7268,14750,0.228,551
2021-08-23T03:31:03,42.805,6.029,CST-1368DR,5280,7267,14749,0.228,551
2021-08-23T03:34:05,42.805,6.029,CST-1368DR,5280,7267,14749,0.228,551
2021-08-23T03:37:07,42.805,6.029,CST-1368DR,5280,7268,14750,0.228,551
2021-08-23T03:40:08,42.805,6.029,CST-1368DR,5280,7268,14750,0.228,551
2021-08-23T03:43:10,42.805,6.029,CST-1368DR,5280,7268,14750,0.228,551
2021-08-23T03:46:11,42.805,6.029,CST-1368DR,5280,7267,14749,0.228,551
2021-08-23T03:49:13,42.805,6.029,CST-1368DR,5280,7268,14750,0.228,550
2021-08-23T03:52:14,42.805,6.029,CST-1368DR,5280,7268,14750,0.228,551
2021-08-23T03:55:16,42.805,6.029,CST-1368DR,5280,7268,14750,0.228,551
2021-08-23T03:58:18,42.805,6.029,CST-1368DR,5280,7268,14750,0.228,551
2021-08-23T04:01:19,42.805,6.029,CST-1368DR,5280,7267,14749,0.228,551
2021-08-23T04:04:21,42.805,6.029,CST-1368DR,5280,7267,14749,0.228,551
2021-08-23T04:07:22,42.805,6.029,CST-1368DR,5280,7267,14748,0.229,551
2021-08-23T04:10:24,42.805,6.029,CST-1368DR,5280,7267,14748,0.229,550
2021-08-23T04:13:25,42.805,6.029,CST-1368DR,5280,7268,14750,0.228,551
2021-08-23T04:16:27,42.805,6.029,CST-1368DR,5280,7267,14749,0.228,551
2021-08-23T04:19:29,42.805,6.029,CST-1368DR,5280,7267,14749,0.228,551
2021-08-23T04:22:30,42.805,6.029,CST-1368DR,5280,7268,14750,0.228,551
2021-08-23T04:25:32,42.805,6.029,CST-1368DR,5280,7268,14750,0.228,551
2021-08-23T04:28:33,42.805,6.029,CST-1368DR,5280,7268,14750,0.228,551
2021-08-23T04:31:35,42.805,6.029,CST-1368DR,5280,7268,14751,0.228,551
2021-08-23T04:34:37,42.805,6.029,CST-1368DR,5280,7268,14750,0.228,551
2021-08-23T04:37:38,42.805,6.029,CST-1368DR,5280,7268,14750,0.228,551
2021-08-23T04:40:40,42.805,6.029,CST-1368DR,5280,7268,14750,0.228,551
2021-08-23T04:43:41,42.805,6.029,CST-1368DR,5280,7267,14748,0.229,551
2021-08-23T04:46:43,42.805,6.029,CST-1368DR,5280,7268,14751,0.228,551
2021-08-23T04:49:44,42.805,6.029,CST-1368DR,5280,7267,14749,0.228,551
2021-08-23T04:52:46,42.805,6.029,CST-1368DR,5280,7268,14751,0.228,551
2021-08-23T04:55:48,42.805,6.029,CST-1368DR,5280,7268,14750,0.228,551
2021-08-23T04:58:49,42.805,6.029,CST-1368DR,5280,7268,14751,0.228,551
2021-08-23T05:01:51,42.805,6.029,CST-1368DR,5280,7269,14752,0.228,551
2021-08-23T05:04:52,42.805,6.029,CST-1368DR,5280,7268,14750,0.228,551
2021-08-23T05:07:54,42.805,6.029,CST-1368DR,5280,7268,14750,0.228,551
2021-08-23T05:10:56,42.805,6.029,CST-1368DR,5280,7267,14749,0.228,551
2021-08-23T05:13:57,42.805,6.029,CST-1368DR,5280,7268,14751,0.228,551
2021-08-23T05:16:59,42.805,6.029,CST-1368DR,5280,7268,14750,0.228,551
2021-08-23T05:20:00,42.805,6.029,CST-1368DR,5280,7268,14750,0.228,551
2021-08-23T05:23:02,42.805,6.029,CST-1368DR,5280,7268,14751,0.228,551
2021-08-23T05:26:03,42.805,6.029,CST-1368DR,5280,7268,14750,0.228,551
2021-08-23T05:29:05,42.805,6.029,CST-1368DR,5280,7268,14750,0.228,551
2021-08-23T05:32:07,42.805,6.029,CST-1368DR,5280,7268,14750,0.228,551
2021-08-23T05:35:08,42.805,6.029,CST-1368DR,5280,7268,14750,0.228,551
2021-08-23T05:38:10,42.805,6.029,CST-1368DR,5280,7267,14748,0.229,551
2021-08-23T05:41:11,42.805,6.029,CST-1368DR,5280,7266,14747,0.229,551
2021-08-23T05:44:13,42.805,6.029,CST-1368DR,5280,7267,14749,0.228,551
2021-08-23T05:47:14,42.805,6.029,CST-1368DR,5280,7268,14750,0.228,551
2021-08-23T05:50:16,42.805,6.029,CST-1368DR,5280,7267,14749,0.228,551
2021-08-23T05:53:18,42.805,6.029,CST-1368DR,5280,7266,14746,0.229,551
2021-08-23T05:56:19,42.805,6.029,CST-1368DR,5280,7267,14748,0.229,551
2021-08-23T05:59:21,42.805,6.029,CST-1368DR,5280,7267,14749,0.228,551
2021-08-23T06:02:22,42.805,6.029,CST-1368DR,5280,7267,14748,0.229,551
2021-08-23T06:05:24,42.805,6.029,CST-1368DR,5280,7264,14743,0.230,551
2021-08-23T06:08:26,42.805,6.029,CST-1368DR,5280,7266,14747,0.229,551
2021-08-23T06:11:27,42.805,6.029,CST-1368DR,5280,7267,14749,0.228,551
2021-08-23T06:14:29,42.805,6.029,CST-1368DR,5280,7267,14749,0.228,551
2021-08-23T06:17:30,42.805,6.029,CST-1368DR,5280,7267,14748,0.229,551
2021-08-23T06:20:32,42.805,6.029,CST-1368DR,5280,7267,14748,0.229,551
2021-08-23T06:23:33,42.805,6.029,CST-1368DR,5280,7267,14749,0.228,551
2021-08-23T06:26:35,42.805,6.029,CST-1368DR,5280,7266,14746,0.229,551
2021-08-23T06:29:37,42.805,6.029,CST-1368DR,5280,7267,14748,0.229,551
2021-08-23T06:32:38,42.805,6.029,CST-1368DR,5280,7265,14744,0.230,551
2021-08-23T06:35:40,42.805,6.029,CST-1368DR,5280,7267,14748,0.229,551
2021-08-23T06:38:41,42.805,6.029,CST-1368DR,5280,7267,14749,0.228,551
2021-08-23T06:41:43,42.805,6.029,CST-1368DR,5280,7267,14748,0.229,551
2021-08-23T06:44:45,42.805,6.029,CST-1368DR,5280,7266,14747,0.229,551
2021-08-23T06:47:46,42.805,6.029,CST-1368DR,5280,7267,14748,0.229,551
2021-08-23T06:50:48,42.805,6.029,CST-1368DR,5280,7267,14748,0.229,551
2021-08-23T06:53:49,42.805,6.029,CST-1368DR,5280,7267,14749,0.228,551
2021-08-23T06:56:51,42.805,6.029,CST-1368DR,5280,7266,14747,0.229,551
2021-08-23T06:59:52,42.805,6.029,CST-1368DR,5280,7266,14747,0.229,551
2021-08-23T07:02:54,42.805,6.029,CST-1368DR,5280,7267,14748,0.229,551
2021-08-23T07:05:56,42.805,6.029,CST-1368DR,5280,7267,14749,0.228,551
2021-08-23T07:08:57,42.805,6.029,CST-1368DR,5280,7267,14748,0.229,551
2021-08-23T07:11:59,42.805,6.029,CST-1368DR,5280,7267,14748,0.229,551
2021-08-23T07:15:00,42.805,6.029,CST-1368DR,5280,7267,14748,0.229,551
2021-08-23T07:18:02,42.805,6.029,CST-1368DR,5280,7267,14749,0.228,551
2021-08-23T07:21:03,42.805,6.029,CST-1368DR,5280,7267,14749,0.228,550
2021-08-23T07:24:05,42.805,6.029,CST-1368DR,5280,7267,14749,0.228,551
2021-08-23T07:27:07,42.805,6.029,CST-1368DR,5280,7267,14749,0.228,551
2021-08-23T07:30:08,42.805,6.029,CST-1368DR,5280,7266,14747,0.229,551
2021-08-23T07:33:10,42.805,6.029,CST-1368DR,5280,7267,14748,0.229,551
2021-08-23T07:36:11,42.805,6.029,CST-1368DR,5280,7267,14749,0.228,551
2021-08-23T07:39:13,42.805,6.029,CST-1368DR,5280,7267,14748,0.229,551
2021-08-23T07:42:15,42.805,6.029,CST-1368DR,5280,7267,14749,0.228,551
2021-08-23T07:45:16,42.805,6.029,CST-1368DR,5280,7267,14749,0.228,551
2021-08-23T07:48:18,42.805,6.029,CST-1368DR,5280,7267,14748,0.229,551
2021-08-23T07:51:19,42.805,6.029,CST-1368DR,5280,7267,14749,0.228,551
2021-08-23T07:54:21,42.805,6.029,CST-1368DR,5280,7267,14749,0.228,551
2021-08-23T07:57:22,42.805,6.029,CST-1368DR,5280,7267,14748,0.229,551
2021-08-23T08:00:24,42.805,6.029,CST-1368DR,5280,7266,14746,0.229,551
2021-08-23T08:03:26,42.805,6.029,CST-1368DR,5280,7265,14745,0.230,551
2021-08-23T08:06:27,42.805,6.029,CST-1368DR,5280,7266,14747,0.229,551
2021-08-23T08:09:29,42.805,6.029,CST-1368DR,5280,7266,14747,0.229,551
2021-08-23T08:12:30,42.805,6.029,CST-1368DR,5280,7267,14748,0.229,551
2021-08-23T08:15:32,42.805,6.029,CST-1368DR,5280,7266,14747,0.229,551
2021-08-23T08:18:33,42.805,6.029,CST-1368DR,5280,7267,14748,0.229,551
2021-08-23T08:21:35,42.805,6.029,CST-1368DR,5280,7262,14739,0.231,551
2021-08-23T08:24:37,42.805,6.029,CST-1368DR,5280,7266,14747,0.229,551
2021-08-23T08:27:38,42.805,6.029,CST-1368DR,5280,7267,14748,0.229,551
2021-08-23T08:30:40,42.805,6.029,CST-1368DR,5280,7266,14747,0.229,551
2021-08-23T08:33:41,42.805,6.029,CST-1368DR,5280,7267,14748,0.229,551
2021-08-23T08:36:43,42.805,6.029,CST-1368DR,5280,7267,14748,0.229,551
2021-08-23T08:39:45,42.805,6.029,CST-1368DR,5280,7266,14747,0.229,551
2021-08-23T08:42:46,42.805,6.029,CST-1368DR,5280,7267,14748,0.229,551
2021-08-23T08:45:48,42.805,6.029,CST-1368DR,5280,7267,14748,0.229,551
2021-08-23T08:48:49,42.805,6.029,CST-1368DR,5280,7267,14748,0.229,551
2021-08-23T08:51:51,42.805,6.029,CST-1368DR,5280,7267,14748,0.229,550
2021-08-23T08:54:52,42.805,6.029,CST-1368DR,5280,7266,14747,0.229,551
2021-08-23T08:57:54,42.805,6.029,CST-1368DR,5280,7267,14748,0.229,551
2021-08-23T09:00:56,42.805,6.029,CST-1368DR,5280,7266,14747,0.229,551
2021-08-23T09:03:57,42.805,6.029,CST-1368DR,5280,7266,14747,0.229,551
2021-08-23T09:06:59,42.805,6.029,CST-1368DR,5280,7265,14745,0.230,551
2021-08-23T09:10:00,42.805,6.029,CST-1368DR,5280,7266,14747,0.229,551
2021-08-23T09:13:02,42.805,6.029,CST-1368DR,5280,7265,14745,0.230,551
2021-08-23T09:16:03,42.805,6.029,CST-1368DR,5280,7264,14743,0.230,551
2021-08-23T09:19:05,42.805,6.029,CST-1368DR,5280,7265,14745,0.230,550
2021-08-23T09:22:07,42.805,6.029,CST-1368DR,5280,7266,14746,0.229,551
2021-08-23T09:25:08,42.805,6.029,CST-1368DR,5280,7266,14747,0.229,551
2021-08-23T09:28:10,42.805,6.029,CST-1368DR,5280,7266,14746,0.229,551
2021-08-23T09:31:11,42.805,6.029,CST-1368DR,5280,7267,14748,0.229,551
2021-08-23T09:34:13,42.805,6.029,CST-1368DR,5280,7265,14745,0.230,551
2021-08-23T09:37:15,42.805,6.029,CST-1368DR,5280,7266,14747,0.229,551
2021-08-23T09:40:16,42.805,6.029,CST-1368DR,5280,7266,14746,0.229,551
2021-08-23T09:43:18,42.805,6.029,CST-1368DR,5280,7266,14747,0.229,551
2021-08-23T09:46:19,42.805,6.029,CST-1368DR,5280,7267,14748,0.229,551
2021-08-23T09:49:21,42.805,6.029,CST-1368DR,5280,7266,14747,0.229,550
2021-08-23T09:52:22,42.805,6.029,CST-1368DR,5280,7267,14748,0.229,551
2021-08-23T09:55:24,42.805,6.029,CST-1368DR,5280,7266,14747,0.229,551
2021-08-23T09:58:26,42.805,6.029,CST-1368DR,5280,7265,14745,0.230,551
2021-08-23T10:01:27,42.805,6.029,CST-1368DR,5280,7265,14745,0.230,551
2021-08-23T10:04:29,42.805,6.029,CST-1368DR,5280,7265,14744,0.230,551
2021-08-23T10:07:30,42.805,6.029,CST-1368DR,5280,7265,14744,0.230,551
2021-08-23T10:10:32,42.805,6.029,CST-1368DR,5280,7265,14744,0.230,551
2021-08-23T10:13:33,42.805,6.029,CST-1368DR,5280,7265,14745,0.230,551
2021-08-23T10:16:35,42.805,6.029,CST-1368DR,5280,7265,14745,0.230,551
2021-08-23T10:19:37,42.805,6.029,CST-1368DR,5280,7265,14745,0.230,551
2021-08-23T10:22:38,42.805,6.029,CST-1368DR,5280,7266,14746,0.229,551
2021-08-23T10:25:40,42.805,6.029,CST-1368DR,5280,7265,14744,0.230,551
2021-08-23T10:28:41,42.805,6.029,CST-1368DR,5280,7265,14745,0.230,551
2021-08-23T10:31:43,42.805,6.029,CST-1368DR,5280,7266,14746,0.229,551
2021-08-23T10:34:45,42.805,6.029,CST-1368DR,5280,7266,14746,0.229,551
2021-08-23T10:37:46,42.805,6.029,CST-1368DR,5280,7265,14744,0.230,551
2021-08-23T10:40:48,42.805,6.029,CST-1368DR,5280,7266,14746,0.229,551
2021-08-23T10:43:49,42.805,6.029,CST-1368DR,5280,7266,14747,0.229,551
2021-08-23T10:46:51,42.805,6.029,CST-1368DR,5280,7266,14746,0.229,551
2021-08-23T10:49:52,42.805,6.029,CST-1368DR,5280,7265,14745,0.230,551
2021-08-23T10:52:54,42.805,6.029,CST-1368DR,5280,7265,14745,0.230,551
2021-08-23T10:55:56,42.805,6.029,CST-1368DR,5280,7265,14744,0.230,551
2021-08-23T10:58:57,42.805,6.029,CST-1368DR,5280,7265,14744,0.230,551
2021-08-23T11:01:59,42.805,6.029,CST-1368DR,5280,7265,14745,0.230,551
2021-08-23T11:05:00,42.805,6.029,CST-1368DR,5280,7264,14742,0.230,551
2021-08-23T11:08:02,42.805,6.029,CST-1368DR,5280,7265,14745,0.230,551
2021-08-23T11:11:03,42.805,6.029,CST-1368DR,5279,7266,14749,0.228,551
2021-08-23T11:14:05,42.805,6.029,CST-1368DR,5279,7264,14746,0.229,551
2021-08-23T11:17:07,42.805,6.029,CST-1368DR,5280,7265,14745,0.230,551
2021-08-23T11:20:08,42.805,6.029,CST-1368DR,5279,7266,14750,0.228,551
2021-08-23T11:23:10,42.805,6.029,CST-1368DR,5279,7265,14748,0.229,551
2021-08-23T11:26:11,42.805,6.029,CST-1368DR,5280,7266,14746,0.229,551
2021-08-23T11:29:13,42.805,6.029,CST-1368DR,5280,7266,14746,0.229,551
2021-08-23T11:32:15,42.805,6.029,CST-1368DR,5279,7265,14747,0.229,551
2021-08-23T11:35:16,42.805,6.029,CST-1368DR,5279,7266,14749,0.228,551
2021-08-23T11:38:18,42.805,6.029,CST-1368DR,5279,7265,14747,0.229,551
2021-08-23T11:41:19,42.805,6.029,CST-1368DR,5279,7265,14747,0.229,551
2021-08-23T11:44:21,42.805,6.029,CST-1368DR,5280,7265,14744,0.230,551
2021-08-23T11:47:22,42.805,6.029,CST-1368DR,5279,7264,14745,0.230,551
2021-08-23T11:50:24,42.805,6.029,CST-1368DR,5280,7266,14746,0.229,551
2021-08-23T11:53:26,42.805,6.029,CST-1368DR,5279,7266,14749,0.228,551
2021-08-23T11:56:27,42.805,6.029,CST-1368DR,5279,7266,14750,0.228,551
2021-08-23T11:59:29,42.805,6.029,CST-1368DR,5279,7265,14748,0.229,551
2021-08-23T12:02:30,42.805,6.029,CST-1368DR,5279,7266,14749,0.228,550
2021-08-23T12:05:32,42.805,6.029,CST-1368DR,5279,7266,14749,0.228,551
2021-08-23T12:08:34,42.805,6.029,CST-1368DR,5279,7266,14749,0.228,551
2021-08-23T12:11:35,42.805,6.029,CST-1368DR,5279,7264,14746,0.229,551
2021-08-23T12:14:37,42.805,6.029,CST-1368DR,5279,7266,14749,0.228,551
2021-08-23T12:17:38,42.805,6.029,CST-1368DR,5279,7265,14748,0.229,551
2021-08-23T12:20:40,42.805,6.029,CST-1368DR,5279,7265,14746,0.229,551
2021-08-23T12:23:41,42.805,6.029,CST-1368DR,5279,7265,14746,0.229,550
2021-08-23T12:26:43,42.805,6.029,CST-1368DR,5279,7266,14750,0.228,551
2021-08-23T12:29:45,42.805,6.029,CST-1368DR,5279,7265,14748,0.229,551
2021-08-23T12:32:46,42.805,6.029,CST-1368DR,5279,7265,14748,0.229,551
2021-08-23T12:35:48,42.805,6.029,CST-1368DR,5279,7266,14750,0.228,551
2021-08-23T12:38:49,42.805,6.029,CST-1368DR,5279,7266,14750,0.228,551
2021-08-23T12:41:51,42.805,6.029,CST-1368DR,5279,7265,14748,0.229,551
2021-08-23T12:44:52,42.805,6.029,CST-1368DR,5279,7264,14745,0.230,551
2021-08-23T12:47:54,42.805,6.029,CST-1368DR,5279,7266,14750,0.228,551
2021-08-23T12:50:56,42.805,6.029,CST-1368DR,5279,7265,14747,0.229,551
2021-08-23T12:53:57,42.805,6.029,CST-1368DR,5279,7266,14750,0.228,551
2021-08-23T12:56:59,42.805,6.029,CST-1368DR,5279,7265,14748,0.229,551
2021-08-23T13:00:00,42.805,6.029,CST-1368DR,5279,7265,14747,0.229,551
2021-08-23T13:03:02,42.805,6.029,CST-1368DR,5279,7266,14749,0.228,551
2021-08-23T13:06:04,42.805,6.029,CST-1368DR,5279,7265,14746,0.229,551
2021-08-23T13:09:05,42.805,6.029,CST-1368DR,5279,7265,14747,0.229,551
2021-08-23T13:12:07,42.805,6.029,CST-1368DR,5279,7265,14747,0.229,551
2021-08-23T13:15:08,42.805,6.029,CST-1368DR,5279,7265,14748,0.229,551
2021-08-23T13:18:10,42.805,6.029,CST-1368DR,5279,7265,14747,0.229,551
2021-08-23T13:21:11,42.805,6.029,CST-1368DR,5279,7265,14747,0.229,551
2021-08-23T13:24:13,42.805,6.029,CST-1368DR,5279,7264,14746,0.229,551
2021-08-23T13:27:15,42.805,6.029,CST-1368DR,5279,7265,14747,0.229,550
2021-08-23T13:30:16,42.805,6.029,CST-1368DR,5279,7263,14743,0.230,551
2021-08-23T13:33:18,42.805,6.029,CST-1368DR,5279,7263,14744,0.230,551
2021-08-23T13:36:19,42.805,6.029,CST-1368DR,5279,7263,14744,0.230,551
2021-08-23T13:39:21,42.805,6.029,CST-1368DR,5279,7264,14745,0.230,551
2021-08-23T13:42:23,42.805,6.029,CST-1368DR,5279,7258,14732,0.233,551
2021-08-23T13:45:24,42.805,6.029,CST-1368DR,5279,7262,14741,0.231,551
2021-08-23T13:48:26,42.805,6.029,CST-1368DR,5279,7261,14738,0.231,551
2021-08-23T13:51:27,42.805,6.029,CST-1368DR,5279,7264,14745,0.230,551
2021-08-23T13:54:29,42.805,6.029,CST-1368DR,5279,7264,14746,0.229,551
2021-08-23T13:57:30,42.805,6.029,CST-1368DR,5279,7265,14746,0.229,551
2021-08-23T14:00:32,42.805,6.029,CST-1368DR,5279,7265,14748,0.229,551
2021-08-23T14:03:34,42.805,6.029,CST-1368DR,5279,7264,14746,0.229,551
2021-08-23T14:06:35,42.805,6.029,CST-1368DR,5279,7263,14743,0.230,551
2021-08-23T14:09:37,42.805,6.029,CST-1368DR,5279,7264,14745,0.230,551
2021-08-23T14:12:38,42.805,6.029,CST-1368DR,5279,7264,14746,0.229,551
2021-08-23T14:15:40,42.805,6.029,CST-1368DR,5279,7264,14746,0.229,551
2021-08-23T14:18:42,42.805,6.029,CST-1368DR,5279,7265,14747,0.229,551
2021-08-23T14:21:43,42.805,6.029,CST-1368DR,5279,7264,14746,0.229,551
2021-08-23T14:24:45,42.805,6.029,CST-1368DR,5279,7265,14747,0.229,551
2021-08-23T14:27:46,42.805,6.029,CST-1368DR,5279,7265,14747,0.229,551
2021-08-23T14:30:48,42.805,6.029,CST-1368DR,5279,7265,14747,0.229,551
2021-08-23T14:33:49,42.805,6.029,CST-1368DR,5279,7265,14747,0.229,551
2021-08-23T14:36:51,42.805,6.029,CST-1368DR,5279,7264,14745,0.230,551
2021-08-23T14:39:53,42.805,6.029,CST-1368DR,5279,7265,14747,0.229,551
2021-08-23T14:42:54,42.805,6.029,CST-1368DR,5279,7265,14746,0.229,551
2021-08-23T14:45:56,42.805,6.029,CST-1368DR,5279,7265,14746,0.229,551
2021-08-23T14:48:57,42.805,6.029,CST-1368DR,5279,7265,14747,0.229,551
2021-08-23T14:51:59,42.805,6.029,CST-1368DR,5279,7265,14747,0.229,551
2021-08-23T14:55:00,42.805,6.029,CST-1368DR,5279,7265,14747,0.229,551
2021-08-23T14:58:02,42.805,6.029,CST-1368DR,5279,7264,14746,0.229,551
2021-08-23T15:01:04,42.805,6.029,CST-1368DR,5279,7265,14746,0.229,551
2021-08-23T15:04:05,42.805,6.029,CST-1368DR,5279,7265,14748,0.229,551
2021-08-23T15:07:07,42.805,6.029,CST-1368DR,5279,7264,14746,0.229,551
2021-08-23T15:10:08,42.805,6.029,CST-1368DR,5279,7263,14744,0.230,551
2021-08-23T15:13:10,42.805,6.029,CST-1368DR,5279,7265,14747,0.229,551
2021-08-23T15:16:12,42.805,6.029,CST-1368DR,5279,7265,14747,0.229,551
2021-08-23T15:19:13,42.805,6.029,CST-1368DR,5279,7264,14745,0.230,551
2021-08-23T15:22:15,42.805,6.029,CST-1368DR,5279,7265,14748,0.229,551
2021-08-23T15:25:16,42.805,6.029,CST-1368DR,5279,7264,14746,0.229,551
2021-08-23T15:28:18,42.805,6.029,CST-1368DR,5279,7262,14740,0.231,551
2021-08-23T15:31:19,42.805,6.029,CST-1368DR,5279,7265,14747,0.229,551
2021-08-23T15:34:21,42.805,6.029,CST-1368DR,5279,7264,14745,0.230,551
2021-08-23T15:37:23,42.805,6.029,CST-1368DR,5279,7264,14745,0.230,551
2021-08-23T15:40:24,42.805,6.029,CST-1368DR,5279,7264,14746,0.229,551
2021-08-23T15:43:26,42.805,6.029,CST-1368DR,5279,7264,14745,0.230,551
2021-08-23T15:46:27,42.805,6.029,CST-1368DR,5279,7265,14747,0.229,551
2021-08-23T15:49:29,42.805,6.029,CST-1368DR,5279,7263,14744,0.230,551
2021-08-23T15:52:30,42.805,6.029,CST-1368DR,5279,7264,14744,0.230,551
2021-08-23T15:55:32,42.805,6.029,CST-1368DR,5279,7264,14745,0.230,551
2021-08-23T15:58:34,42.805,6.029,CST-1368DR,5279,7264,14746,0.229,551
2021-08-23T16:01:35,42.805,6.029,CST-1368DR,5279,7264,14746,0.229,551
2021-08-23T16:04:37,42.805,6.029,CST-1368DR,5279,7265,14746,0.229,551
2021-08-23T16:07:38,42.805,6.029,CST-1368DR,5279,7265,14746,0.229,551
2021-08-23T16:10:40,42.805,6.029,CST-1368DR,5279,7248,14713,0.238,551
2021-08-23T16:13:42,42.805,6.029,CST-1368DR,5279,7259,14736,0.232,551
2021-08-23T16:16:43,42.805,6.029,CST-1368DR,5279,7241,14699,0.242,551
2021-08-23T16:19:45,42.805,6.029,CST-1368DR,5278,7240,14700,0.242,551
2021-08-23T16:22:46,42.805,6.029,CST-1368DR,5279,7250,14717,0.237,551
2021-08-23T16:25:48,42.805,6.029,CST-1368DR,5279,7248,14713,0.238,551
2021-08-23T16:28:49,42.805,6.029,CST-1368DR,5278,7260,14740,0.231,551
2021-08-23T16:31:51,42.805,6.029,CST-1368DR,5279,7260,14737,0.232,551
2021-08-23T16:34:53,42.805,6.029,CST-1368DR,5279,7265,14746,0.229,551
2021-08-23T16:37:54,42.805,6.029,CST-1368DR,5278,7258,14735,0.232,551
2021-08-23T16:40:56,42.805,6.029,CST-1368DR,5278,7264,14747,0.229,551
2021-08-23T16:43:57,42.805,6.029,CST-1368DR,5278,7263,14745,0.230,550
2021-08-23T16:46:59,42.805,6.029,CST-1368DR,5278,7264,14749,0.228,551
2021-08-23T16:50:01,42.805,6.029,CST-1368DR,5278,7262,14744,0.230,551
2021-08-23T16:53:02,42.805,6.029,CST-1368DR,5278,7264,14747,0.229,551